Regional Weather Roundup
Issued by NWS Wilmington, NC

Home | Current Version | Previous Version | Text Only | Print | Product List | Glossary On
Versions: 1 2 3 4 5 6 7 8 9 10 11 12 13 14 15 16 17 18 19 20 21 22 23 24 25 26 27 28 29 30 31 32 33 34 35 36 37 38 39 40 41 42 43 44 45 46 47 48 49
000
ASUS42 KILM 211810
RWRILM
RWRILM
REGIONAL HOURLY WEATHER ROUNDUP
NATIONAL WEATHER SERVICE WILMINGTON NC
200 PM EDT TUE OCT 21 2014

NOTE: "FAIR" INDICATES FEW OR NO CLOUDS BELOW 12,000 FEET WITH NO
SIGNIFICANT WEATHER AND/OR OBSTRUCTIONS TO VISIBILITY.

...............WFO WILMINGTON COUNTY WARNING AREA...............

......COASTAL NC AND SC COUNTIES......

CITY           SKY/WX    TMP DP  RH WIND       PRES   REMARKS
WILMINGTON     SUNNY     76  52  43 SW12      29.87F
SOUTHPORT      SUNNY     76  54  45 SW9       29.88F
N MYRTLE BEACH SUNNY     76  53  44 W7        29.87F
MYRTLE BEACH   SUNNY     79  54  41 W10       29.89F

......INLAND NC AND SC COUNTIES.......

CITY           SKY/WX    TMP DP  RH WIND       PRES   REMARKS
LUMBERTON      SUNNY     77  47  34 W10       29.86F
ELIZABETHTOWN  SUNNY     75  47  36 W6        29.87F
WHITEVILLE     SUNNY     76  51  41 W6        29.86F
FLORENCE       SUNNY     77  49  37 MISG      29.88F
DARLINGTON     SUNNY     75  48  38 W9        29.88F

....................REST OF NORTH CAROLINA......................

.........EASTERN NC.........

CITY           SKY/WX    TMP DP  RH WIND       PRES   REMARKS
CAPE HATTERAS  SUNNY     70  58  65 SW9       29.87F
JACKSONVILLE   SUNNY     77  52  41 SW6       29.86F
MOREHEAD CITY  SUNNY     73  59  61 S12       29.87F
KENANSVILLE    SUNNY     75  49  38 W6        29.86F
NEW BERN       SUNNY     78  52  40 W7        29.86F
ELIZABETH CITY MOSUNNY   75  53  46 SW12      29.83F

.........CENTRAL NC.........

CITY           SKY/WX    TMP DP  RH WIND       PRES   REMARKS
RALEIGH DURHAM MOSUNNY   73  48  41 NW8       29.86F
ROCKY MOUNT    SUNNY     74  50  42 W8        29.85F
ROANOKE RAPIDS NOT AVBL
FAYETTEVILLE   SUNNY     75  48  38 MISG      29.85F
HOFFMAN        SUNNY     77  44  31 W12G18    29.88F

.........WESTERN NC.........

CITY           SKY/WX    TMP DP  RH WIND       PRES   REMARKS
CHARLOTTE      MOSUNNY   73  44  35 W7G16     29.90F
GREENSBORO     MOSUNNY   70  45  40 W13G20    29.87F
HICKORY        NOT AVBL
BOONE          NOT AVBL
ASHEVILLE      NOT AVBL

.....................REST OF SOUTH CAROLINA.....................

.........EASTERN SC.........

CITY           SKY/WX    TMP DP  RH WIND       PRES   REMARKS
CHARLESTON     SUNNY     79  52  38 W9        29.91F
BEAUFORT MCAS  SUNNY     78  54  43 W12       29.92F
HILTON HEAD    NOT AVBL

.........CENTRAL SC.........

CITY           SKY/WX    TMP DP  RH WIND       PRES   REMARKS
COLUMBIA       SUNNY     78  47  33 W14       29.89F
ORANGEBURG     SUNNY     76  49  38 W7        29.90F
SUMTER SHAW    SUNNY     76  49  37 W8        29.87F

.........WESTERN SC.........

CITY           SKY/WX    TMP DP  RH WIND       PRES   REMARKS
GREENVILLE     NOT AVBL
ROCK HILL      SUNNY     73  46  38 W8        29.90F
ANDERSON       SUNNY     74  49  41 W15G21    29.92F
CLEMSON        NOT AVBL
GREENWOOD      SUNNY     75  49  39 W14       29.92F


...................COASTAL AND OFFSHORE REPORTS..................

................LOCAL PIERS AND NC RESERVE................


STATION/POSITION TIME  SKY/WX   TEMP    WIND        PRES    VSBY
                                AIR SEA DIR/SP/G
                 (UTC)          (F)     (DEG/KT/KT) (MB)    (MI)
JOHNY MRCER PIER 1800            75 75  220/ 10/ 12 1011.0
NC RESRV MASNBRO 1700            77     270/  3     1013.0S
OCEAN CREST PIER 1800            72 73  200/  9/ 11 1011.0F
SPRINGMAID  PIER 1800            74 72              1011.8


................COASTAL AND OFFSHORE BUOYS................


STATION/POSITION TIME  SKY/WX   TEMP    WIND        PRES    VSBY
                                AIR SEA DIR/SP/G
                 (UTC)          (F)     (DEG/KT/KT) (MB)    (MI)
DIMNDSHOAL 41025 1800            72     240/ 10/ 12 1011.8F
WVE H/P(F/S)=  2/ 4 WND WVE H/P(F/S)=  2/ 4 SWL H/P/D(F/S/D)=  2/110/ 9

CAPE LOOKOUT     1700            71     250/  6/  7 1012.3F
ONSLOW BAY 41036 1800            71 76  240/  8/ 10 1011.6F
WVE H/P(F/S)=  2/ 9 WND WVE H/P(F/S)=  2/ 4 SWL H/P/D(F/S/D)=  2/120/ 9

5 WRITEBCH 41038 1800            69 74  190/  8/ 10   N/A
MASONBORO  41110 1800               74                N/A
WVE H/P(F/S)=  2/10 WND WVE H/P(F/S)=  2/10

WILM HARBR 41108 1800               74                N/A
WVE H/P(F/S)=  2/ 9 WND WVE H/P(F/S)=  2/ 9

27WRITEBCH 41037 1700            68 76  260/  8/  8 1012.7F
FRYING PAN 41013 1800            71 76  280/  6/  6 1013.3F
WVE H/P(F/S)=  2/10 WND WVE H/P(F/S)=  2/ 3 SWL H/P/D(F/S/D)=  2/ 90/10

SUNST NRSH 41024 1700            75     220/  8/  8 1012.7F
CAPRS NRSH 41029 1700            77      CALM  /  2   N/A
EDISTO     41004 1800            73 80  310/  8/ 10 1012.6F
WVE H/P(F/S)=  2/ 9 WND WVE H/P(F/S)=  2/ 4 SWL H/P/D(F/S/D)=  2/ 9



..........OFFSHORE BUOYS BEYOND 100 NM OFFSHORE...........
.....IN A TRIANGLE---HAT TO BERMUDA TO BAHAMAS TO HAT.....


STATION/POSITION TIME  SKY/WX   TEMP    WIND        PRES    VSBY
                                AIR SEA DIR/SP/G
                 (UTC)          (F)     (DEG/KT/KT) (MB)    (MI)
150E HAT   41001 NOT AVBL
W BERMUDA  41048 1659            75 80  140/  8/ 10 1014.9F
WVE H/P(F/S)=  4/ 8 WND WVE H/P(F/S)=  2/ 4 SWL H/P/D(F/S/D)=  3/ 50/ 8

ATLANTIC S 41049 1720            80 82   50/  8/ 10 1015.7F
WVE H/P(F/S)=  5/11 WND WVE H/P(F/S)=  2/ 4 SWL H/P/D(F/S/D)=  5/340/11

E BAHAMAS  41046 1710            82 84  130/  6/  6 1014.2F
WVE H/P(F/S)=  5/11 WND WVE H/P(F/S)=  2/ 4 SWL H/P/D(F/S/D)=  5/11

NE BAHAMAS 41047 1656            80 83  100/  6/  6 1014.4
WVE H/P(F/S)=  4/ 9 SWL H/P/D(F/S/D)=  3/ 30/ 9

120E CANVRL41010 1800            78 80  310/ 10/ 12 1013.6F
WVE H/P(F/S)=  3/ 8 WND WVE H/P(F/S)=  2/ 4 SWL H/P/D(F/S/D)=  2/ 50/ 8


END



USA.gov is the U.S. government's official web portal to all federal, state and local government web resources and services.